TimeCDT,TemperatureF,Dew PointF,Humidity,Sea Level PressureIn,VisibilityMPH,Wind Direction,Wind SpeedMPH,Gust SpeedMPH,PrecipitationIn,Events,Conditions,WindDirDegrees,DateUTC
12:15 AM,52.5,32.4,46,30.07,10.0,South,5.8,-,N/A,,Clear,190,2014-04-10 05:15:00
12:35 AM,52.7,32.7,47,30.07,10.0,South,4.6,-,N/A,,Clear,190,2014-04-10 05:35:00
12:55 AM,52.3,33.1,48,30.06,10.0,South,5.8,-,N/A,,Clear,190,2014-04-10 05:55:00
1:15 AM,52.7,32.4,46,30.06,10.0,South,4.6,-,N/A,,Clear,170,2014-04-10 06:15:00
1:35 AM,52.3,32.9,48,30.05,10.0,South,4.6,-,N/A,,Clear,190,2014-04-10 06:35:00
1:55 AM,51.6,33.4,50,30.05,10.0,South,5.8,-,N/A,,Clear,190,2014-04-10 06:55:00
2:15 AM,51.3,33.8,51,30.04,10.0,SSW,6.9,-,N/A,,Clear,200,2014-04-10 07:15:00
2:35 AM,51.6,33.6,50,30.03,10.0,South,6.9,-,N/A,,Clear,190,2014-04-10 07:35:00
2:55 AM,52.2,33.3,49,30.03,10.0,South,4.6,-,N/A,,Clear,180,2014-04-10 07:55:00
3:15 AM,52.0,33.3,49,30.03,10.0,South,4.6,-,N/A,,Clear,180,2014-04-10 08:15:00
3:35 AM,52.0,33.6,50,30.03,10.0,South,5.8,-,N/A,,Clear,180,2014-04-10 08:35:00
3:55 AM,52.9,33.1,47,30.02,10.0,South,5.8,-,N/A,,Clear,170,2014-04-10 08:55:00
4:15 AM,53.6,33.1,46,30.01,10.0,South,10.4,-,N/A,,Clear,180,2014-04-10 09:15:00
4:35 AM,53.6,34.0,47,30.01,10.0,South,8.1,-,N/A,,Clear,190,2014-04-10 09:35:00
4:55 AM,52.5,34.7,51,30.02,10.0,South,6.9,-,N/A,,Clear,190,2014-04-10 09:55:00
5:15 AM,52.7,34.9,51,30.02,10.0,South,5.8,-,N/A,,Clear,180,2014-04-10 10:15:00
5:35 AM,52.7,35.1,51,30.02,10.0,South,6.9,-,N/A,,Clear,180,2014-04-10 10:35:00
5:55 AM,52.9,35.1,51,30.01,10.0,South,8.1,-,N/A,,Clear,180,2014-04-10 10:55:00
6:15 AM,52.9,35.4,52,30.01,10.0,South,10.4,-,N/A,,Clear,180,2014-04-10 11:15:00
6:35 AM,52.7,35.8,53,30.02,10.0,South,9.2,-,N/A,,Clear,180,2014-04-10 11:35:00
7:15 AM,53.6,36.1,52,30.03,10.0,South,12.7,20.7,N/A,,Clear,190,2014-04-10 12:15:00
7:35 AM,54.7,36.5,50,30.03,10.0,South,10.4,17.3,N/A,,Clear,190,2014-04-10 12:35:00
7:55 AM,55.8,36.5,48,30.03,10.0,South,13.8,18.4,N/A,,Clear,190,2014-04-10 12:55:00
8:15 AM,57.4,36.5,46,30.03,10.0,South,13.8,19.6,N/A,,Clear,190,2014-04-10 13:15:00
8:35 AM,59.2,36.7,43,30.03,10.0,SSW,13.8,19.6,N/A,,Clear,200,2014-04-10 13:35:00
8:55 AM,60.3,36.3,41,30.03,10.0,SSW,15.0,20.7,N/A,,Clear,200,2014-04-10 13:55:00
9:15 AM,61.2,36.3,40,30.01,10.0,South,16.1,25.3,N/A,,Clear,190,2014-04-10 14:15:00
9:35 AM,62.8,36.5,38,30.01,10.0,South,17.3,24.2,N/A,,Clear,190,2014-04-10 14:35:00
9:55 AM,63.9,36.7,37,30.01,10.0,South,16.1,24.2,N/A,,Clear,190,2014-04-10 14:55:00
10:15 AM,65.5,36.5,34,30.01,10.0,SSW,17.3,23.0,N/A,,Clear,200,2014-04-10 15:15:00
10:35 AM,67.1,37.2,33,30.00,10.0,SSW,18.4,26.5,N/A,,Clear,210,2014-04-10 15:35:00
10:55 AM,68.0,37.4,33,30.00,10.0,SSW,20.7,27.6,N/A,,Clear,200,2014-04-10 15:55:00
11:15 AM,68.5,37.6,32,29.99,10.0,South,20.7,26.5,N/A,,Clear,190,2014-04-10 16:15:00
11:35 AM,69.8,37.9,31,29.99,10.0,South,17.3,26.5,N/A,,Clear,170,2014-04-10 16:35:00
11:55 AM,70.7,38.8,31,29.98,10.0,South,18.4,29.9,N/A,,Clear,190,2014-04-10 16:55:00
12:15 PM,71.4,38.5,30,29.98,10.0,South,19.6,28.8,N/A,,Clear,190,2014-04-10 17:15:00
12:35 PM,72.7,39.6,30,29.97,10.0,South,20.7,28.8,N/A,,Clear,190,2014-04-10 17:35:00
12:55 PM,73.8,39.4,29,29.96,10.0,South,20.7,29.9,N/A,,Clear,190,2014-04-10 17:55:00
1:15 PM,74.8,39.6,28,29.95,10.0,SSW,16.1,25.3,N/A,,Clear,200,2014-04-10 18:15:00
1:35 PM,75.2,39.7,28,29.94,10.0,South,21.9,26.5,N/A,,Clear,190,2014-04-10 18:35:00
1:55 PM,76.3,40.5,28,29.93,10.0,South,18.4,25.3,N/A,,Clear,190,2014-04-10 18:55:00
2:15 PM,78.3,39.7,25,29.92,10.0,South,20.7,26.5,N/A,,Clear,190,2014-04-10 19:15:00
2:35 PM,78.3,39.7,25,29.91,10.0,South,13.8,26.5,N/A,,Clear,190,2014-04-10 19:35:00
2:55 PM,78.4,39.6,25,29.90,10.0,South,18.4,25.3,N/A,,Clear,190,2014-04-10 19:55:00
3:15 PM,79.3,38.7,23,29.89,10.0,SSW,19.6,28.8,N/A,,Clear,200,2014-04-10 20:15:00
3:35 PM,79.2,38.7,23,29.88,10.0,SSW,20.7,27.6,N/A,,Clear,200,2014-04-10 20:35:00
3:55 PM,79.9,38.5,23,29.87,10.0,SSW,18.4,26.5,N/A,,Clear,200,2014-04-10 20:55:00
4:15 PM,79.5,36.9,22,29.87,10.0,SSW,21.9,27.6,N/A,,Clear,200,2014-04-10 21:15:00
4:35 PM,79.9,33.6,19,29.87,10.0,South,19.6,28.8,N/A,,Clear,190,2014-04-10 21:35:00
4:55 PM,79.7,34.2,19,29.87,10.0,SSW,13.8,27.6,N/A,,Clear,200,2014-04-10 21:55:00
5:15 PM,79.2,31.8,18,29.88,10.0,SW,15.0,26.5,N/A,,Clear,220,2014-04-10 22:15:00
5:35 PM,78.8,33.3,19,29.88,10.0,SSW,12.7,26.5,N/A,,Clear,210,2014-04-10 22:35:00
5:55 PM,77.9,37.0,23,29.89,10.0,South,16.1,19.6,N/A,,Clear,190,2014-04-10 22:55:00
6:15 PM,76.5,36.9,24,29.90,10.0,SSW,18.4,23.0,N/A,,Clear,200,2014-04-10 23:15:00
6:35 PM,75.4,36.9,25,29.90,10.0,SSW,12.7,21.9,N/A,,Clear,200,2014-04-10 23:35:00
6:55 PM,74.1,37.0,26,29.90,10.0,South,10.4,-,N/A,,Clear,190,2014-04-10 23:55:00
7:15 PM,73.6,37.9,27,29.91,10.0,South,13.8,21.9,N/A,,Clear,190,2014-04-11 00:15:00
7:35 PM,72.5,37.6,28,29.91,10.0,South,12.7,16.1,N/A,,Clear,180,2014-04-11 00:35:00
7:55 PM,72.3,37.6,28,29.91,10.0,South,17.3,20.7,N/A,,Clear,190,2014-04-11 00:55:00
8:15 PM,71.2,37.8,29,29.91,10.0,South,10.4,-,N/A,,Clear,190,2014-04-11 01:15:00
8:35 PM,70.7,38.3,31,29.92,10.0,South,11.5,17.3,N/A,,Clear,190,2014-04-11 01:35:00
8:55 PM,70.5,38.3,31,29.93,10.0,South,15.0,20.7,N/A,,Clear,180,2014-04-11 01:55:00
9:15 PM,70.3,37.9,31,29.93,10.0,South,16.1,24.2,N/A,,Clear,190,2014-04-11 02:15:00
9:35 PM,69.8,38.3,32,29.94,10.0,South,13.8,20.7,N/A,,Clear,190,2014-04-11 02:35:00
9:55 PM,69.8,38.3,32,29.95,10.0,SSW,11.5,18.4,N/A,,Clear,200,2014-04-11 02:55:00
10:15 PM,69.6,37.6,31,29.95,10.0,SSW,17.3,23.0,N/A,,Clear,200,2014-04-11 03:15:00
10:35 PM,69.3,37.2,31,29.95,10.0,SSW,10.4,21.9,N/A,,Clear,200,2014-04-11 03:35:00
10:55 PM,69.3,36.7,30,29.96,10.0,SSW,13.8,21.9,N/A,,Scattered Clouds,200,2014-04-11 03:55:00
11:15 PM,69.1,36.7,30,29.96,10.0,SSW,9.2,21.9,N/A,,Overcast,210,2014-04-11 04:15:00
11:35 PM,68.4,37.2,32,29.97,10.0,SSW,8.1,-,N/A,,Overcast,210,2014-04-11 04:35:00
11:55 PM,67.8,37.6,33,29.97,10.0,SSW,8.1,-,N/A,,Scattered Clouds,210,2014-04-11 04:55:00